GW4764 Weather Reports


time (UTC)temp
C
wind
direction
speed
KPH
gust
KPH
rain 1hr
cm
rain 24hr
cm
rain mn
cm
humidity
%
barometer
mb
20260502183035 7 297 3.2 14.5 0.00 0.00 0.00 51 1016.9
20260502181536 7 280 3.2 16.1 0.00 0.00 0.00 53 1017.0
20260502163012 6 9 3.2 11.3 0.00 0.00 0.00 50 1017.5
20260502161506 6 290 3.2 16.1 0.00 0.00 0.00 51 1017.7
20260502151504 6 311 3.2 8.0 0.00 0.00 0.00 50 1017.6
20260502123013 2 346 4.8 12.9 0.00 0.00 0.00 72 1017.8
20260502121513 2 316 3.2 11.3 0.00 0.00 0.00 75 1017.7
20260502114521 1 265 0.0 6.4 0.00 0.00 0.00 80 1017.6
20260502113006 0 346 3.2 6.4 0.00 0.00 0.00 83 1017.5
20260502111508 0 342 0.0 3.2 0.00 0.00 0.00 89 1017.4
20260502110014 -1 352 0.0 1.6 0.00 0.00 0.00 90 1017.2
20260502104522 -1 352 0.0 0.0 0.00 0.00 0.00 90 1017.2
20260502103031 -1 352 0.0 0.0 0.00 0.00 0.00 90 1017.2
20260502101528 -1 352 0.0 0.0 0.00 0.00 0.00 90 1017.1
20260502091525 0 352 0.0 1.6 0.00 0.00 0.00 87 1016.7
20260502071505 2 360 0.0 3.2 0.00 0.00 0.00 75 1016.3
20260502070007 3 80 0.0 3.2 0.00 0.00 0.00 71 1016.1
20260502064504 3 81 0.0 3.2 0.00 0.00 0.00 69 1016.4
20260502063002 3 84 0.0 3.2 0.00 0.00 0.00 72 1016.4
20260502061505 3 68 0.0 3.2 0.00 0.00 0.00 68 1016.7
20260502060009 3 349 0.0 3.2 0.00 0.00 0.00 66 1016.7
20260502054507 3 13 0.0 3.2 0.00 0.00 0.00 66 1016.8
20260502053004 3 352 0.0 1.6 0.00 0.00 0.00 64 1016.6
20260502051506 3 352 0.0 4.8 0.00 0.00 0.00 63 1016.6
20260502050008 3 311 0.0 3.2 0.00 0.00 0.00 64 1016.6
20260502044503 3 338 0.0 3.2 0.00 0.00 0.00 62 1016.4
20260502043004 3 64 1.6 9.7 0.00 0.00 0.00 63 1016.4
20260502041507 3 9 1.6 6.4 0.00 0.00 0.00 64 1016.3
20260502040007 3 322 1.6 4.8 0.00 0.00 0.00 65 1016.3
20260502034512 3 352 0.0 3.2 0.00 0.00 0.00 66 1016.1
20260502033006 4 336 0.0 1.6 0.00 0.00 0.00 68 1016.1
20260502031508 4 351 0.0 3.2 0.00 0.00 0.00 66 1016.0
20260502030008 4 17 1.6 6.4 0.00 0.00 0.00 65 1016.2
20260502024506 4 39 0.0 11.3 0.00 0.00 0.00 64 1016.1
20260502023011 5 5 0.0 12.9 0.00 0.00 0.00 64 1016.0
20260502021508 5 360 1.6 11.3 0.00 0.00 0.00 62 1015.9
20260502020010 5 329 1.6 4.8 0.00 0.00 0.00 63 1015.6
20260502014510 5 327 1.6 8.0 0.00 0.00 0.00 63 1015.7
20260502013010 5 273 0.0 3.2 0.00 0.00 0.00 62 1015.5
20260502011522 5 270 1.6 8.0 0.00 0.00 0.00 62 1015.4
20260502010013 5 336 1.6 11.3 0.00 0.00 0.00 62 1015.3
20260502004514 5 333 1.6 16.1 0.00 0.00 0.00 62 1015.3
20260502003014 5 340 0.0 6.4 0.00 0.00 0.00 63 1015.0
20260502001519 5 249 0.0 4.8 0.00 0.00 0.00 63 1015.1
20260502000016 6 277 1.6 6.4 0.00 0.00 0.00 62 1014.7
20260501234511 6 340 0.0 3.2 0.00 0.00 0.00 62 1014.7
20260501233021 6 304 1.6 6.4 0.00 0.00 0.00 61 1014.8
20260501231519 6 344 1.6 9.7 0.00 0.00 0.00 62 1014.7
20260501230006 6 360 1.6 14.5 0.00 0.00 0.00 61 1014.8
20260501224509 6 311 3.2 12.9 0.00 0.00 0.00 60 1014.7
20260501223010 6 24 3.2 8.0 0.00 0.00 0.00 63 1014.6
20260501221503 6 299 1.6 12.9 0.00 0.00 0.00 62 1014.6
20260501220003 6 5 3.2 11.3 0.00 0.00 0.00 62 1014.6
20260501214506 6 360 3.2 9.7 0.00 0.00 0.00 60 1014.4
20260501213010 6 310 3.2 9.7 0.00 0.00 0.00 60 1014.2
20260501211516 7 299 1.6 11.3 0.00 0.00 0.00 59 1014.0
20260501210009 7 313 0.0 11.3 0.00 0.00 0.00 59 1013.9
20260501204506 8 315 3.2 11.3 0.00 0.00 0.00 55 1013.9
20260501203010 8 51 1.6 16.1 0.00 0.00 0.00 57 1013.7
20260501201516 7 238 3.2 14.5 0.00 0.00 0.00 58 1013.9
20260501200018 8 308 1.6 12.9 0.00 0.00 0.00 56 1013.8
20260501194506 8 242 8.0 14.5 0.00 0.00 0.00 54 1013.7
20260501193008 7 288 3.2 6.4 0.00 0.00 0.00 59 1013.7
20260501191512 7 340 1.6 9.7 0.00 0.00 0.00 58 1013.7
20260501190017 8 265 3.2 9.7 0.00 0.00 0.00 54 1013.6
20260501184525 8 52 1.6 8.0 0.00 0.00 0.00 61 1013.4